Location: *
(48.4333°N, 5.0333°W)
Time: 16:43:28
(UTC+00:00)

Cosmos 1953 - Pass Details

Date: 09 April 2020
Orbit: 539 x 558 km, 82.5° (Epoch: 04 June)

Event Time Altitude Azimuth Distance (km) Brightness Sun altitude
Rises 19:31:46 0° 195° (SSW) 2,688 5.8 -5.4°
Reaches altitude 10° 19:33:55 10° 198° (SSW) 1,804 5.0 -5.8°
Maximum altitude 19:37:51 66° 281° (W) 598 2.8 -6.4°
Drops below altitude 10° 19:41:52 10° 5° (N) 1,830 5.2 -7.0°
Sets 19:44:04 0° 8° (N) 2,731 6.1 -7.3°
